Simultaneous Nadir Overpasses (SNOs) Predictions

Prediction of SNOs between METOP-B and NPP Satellite Orbit:

Table of predicted SNOs for the next 14.0 days since TLE Epoch: 6/8/2013
Index Date (METOP-B) Time (METOP-B) Lat,Lon (METOP-B) SZA (METOP-B ) Date (NPP) Time (NPP) Lat,Lon (NPP) SZA (NPP ) Distance(km) Time Diff (sec)
1 06/12/2013 10:22:36 73.24, 17.65 50.11 06/12/2013 10:21:28 73.25, 15.16 50.25 80.05 68
2 06/12/2013 11:13:19 -73.14,-175.24 129.99 06/12/2013 11:12:10 -73.15,-177.32 129.86 67.11 69
3 06/12/2013 12:04:03 72.96, -8.28 49.86 06/12/2013 12:02:52 72.95, -9.57 49.92 42.18 71
4 06/12/2013 12:54:47 -72.81, 158.74 130.28 06/12/2013 12:53:34 -72.85, 157.95 130.19 26.35 73
5 06/12/2013 13:45:31 72.64, -34.29 49.56 06/12/2013 13:44:16 72.65, -34.32 49.59 1.65 75
6 06/12/2013 14:36:12 -72.64, 133.04 130.44 06/12/2013 14:35:00 -72.66, 132.98 130.41 2.80 72
7 06/12/2013 15:26:53 72.62, -59.68 49.54 06/12/2013 15:25:45 72.61, -59.60 49.54 2.85 68
8 06/12/2013 16:17:34 -72.62, 107.66 130.47 06/12/2013 16:16:29 -72.61, 107.70 130.46 1.55 65
9 06/12/2013 17:08:15 72.60, -85.06 49.52 06/12/2013 17:07:15 72.61, -84.98 49.54 2.95 60
10 06/12/2013 17:58:56 -72.60, 82.28 130.49 06/12/2013 17:57:59 -72.62, 82.32 130.46 2.51 57
11 06/12/2013 18:49:36 72.63,-110.34 49.54 06/12/2013 18:48:45 72.62,-110.37 49.54 1.56 51
12 06/12/2013 19:40:16 -72.63, 57.00 130.46 06/12/2013 19:39:28 -72.62, 56.93 130.46 2.36 48
13 06/12/2013 20:30:57 72.61,-135.72 49.52 06/12/2013 20:30:14 72.62,-135.76 49.54 2.24 43
14 06/12/2013 21:21:38 -72.61, 31.62 130.49 06/12/2013 21:20:58 -72.63, 31.55 130.45 3.35 40
15 06/12/2013 22:12:19 72.58,-161.10 49.49 06/12/2013 22:11:43 72.58,-161.04 49.49 2.26 36
16 06/12/2013 23:03:00 -72.59, 6.24 130.51 06/12/2013 23:02:27 -72.58, 6.26 130.51 0.99 33
17 06/12/2013 23:53:41 72.56, 173.52 49.47 06/12/2013 23:53:13 72.58, 173.58 49.49 2.86 28
18 06/13/2013 00:44:22 -72.57, -19.15 130.53 06/13/2013 00:43:57 -72.59, -19.12 130.50 2.61 25
19 06/13/2013 01:35:02 72.59, 148.24 49.49 06/13/2013 01:34:43 72.59, 148.19 49.49 1.72 19
20 06/13/2013 02:25:43 -72.60, -44.42 130.51 06/13/2013 02:25:27 -72.60, -44.51 130.50 2.78 16
21 06/13/2013 03:16:24 72.57, 122.86 49.47 06/13/2013 03:16:13 72.59, 122.81 49.50 2.85 11
22 06/13/2013 04:07:05 -72.58, -69.81 130.53 06/13/2013 04:06:56 -72.55, -69.79 130.56 3.04 9
23 06/13/2013 04:57:46 72.55, 97.47 49.45 06/13/2013 04:57:42 72.55, 97.52 49.44 1.67 4
24 06/13/2013 05:48:27 -72.56, -95.19 130.55 06/13/2013 05:48:26 -72.56, -95.17 130.55 0.43 1
25 06/13/2013 06:39:08 72.53, 72.09 49.43 06/13/2013 06:39:12 72.55, 72.14 49.45 2.91 4
26 06/13/2013 07:29:49 -72.54,-120.57 130.57 06/13/2013 07:29:56 -72.56,-120.56 130.55 2.83 7
27 06/13/2013 08:20:29 72.56, 46.81 49.45 06/13/2013 08:20:42 72.56, 46.75 49.45 2.09 13
28 06/13/2013 09:11:10 -72.57,-145.85 130.55 06/13/2013 09:11:26 -72.57,-145.95 130.55 3.26 16
29 06/13/2013 10:01:51 72.54, 21.43 49.43 06/13/2013 10:02:11 72.51, 21.47 49.40 3.20 20
30 06/13/2013 10:52:32 -72.55,-171.23 130.57 06/13/2013 10:52:55 -72.52,-171.23 130.60 2.67 23
31 06/13/2013 11:43:13 72.52, -3.95 49.41 06/13/2013 11:43:41 72.52, -3.92 49.40 1.12 28
32 06/13/2013 12:33:54 -72.52, 163.39 130.60 06/13/2013 12:34:25 -72.53, 163.39 130.60 0.25 31
33 06/13/2013 13:24:35 72.50, -29.33 49.38 06/13/2013 13:25:11 72.53, -29.30 49.40 3.10 36
34 06/13/2013 14:15:16 -72.50, 138.01 130.62 06/13/2013 14:15:55 -72.53, 138.00 130.60 3.15 39
35 06/13/2013 15:05:56 72.53, -54.61 49.41 06/13/2013 15:06:41 72.53, -54.69 49.40 2.58 45
36 06/13/2013 15:56:38 -72.48, 112.63 130.64 06/13/2013 15:57:24 -72.49, 112.72 130.65 3.10 46
37 06/13/2013 16:47:18 72.51, -79.99 49.39 06/13/2013 16:48:10 72.49, -79.97 49.35 2.62 52
38 06/13/2013 17:37:59 -72.51, 87.35 130.62 06/13/2013 17:38:54 -72.49, 87.33 130.65 2.38 55
39 06/13/2013 18:28:40 72.49,-105.37 49.36 06/13/2013 18:29:40 72.49,-105.36 49.35 0.75 60
40 06/13/2013 19:19:21 -72.49, 61.97 130.64 06/13/2013 19:20:24 -72.50, 61.95 130.64 0.83 63
41 06/13/2013 20:10:02 72.47,-130.76 49.34 06/13/2013 20:11:10 72.50,-130.74 49.36 3.41 68
42 06/13/2013 21:00:43 -72.47, 36.59 130.66 06/13/2013 21:01:53 -72.45, 36.67 130.70 3.44 70
43 06/13/2013 21:51:25 72.39,-156.24 49.27 06/13/2013 21:52:38 72.40,-155.92 49.25 10.66 73
44 06/13/2013 22:42:08 -72.30, 10.90 130.82 06/13/2013 22:43:21 -72.36, 11.48 130.81 20.65 73
45 06/13/2013 23:32:53 72.07, 177.78 48.98 06/13/2013 23:34:03 72.15, 179.19 48.97 49.14 70
46 06/14/2013 00:23:36 -71.97, -15.07 131.11 06/14/2013 00:24:45 -72.06, -13.31 131.13 61.20 69
47 06/14/2013 01:14:20 71.79, 151.92 48.73 06/14/2013 01:15:26 71.80, 154.49 48.59 89.30 66
48 06/14/2013 02:05:03 -71.69, -40.92 131.35 06/14/2013 02:06:09 -71.75, -38.11 131.46 98.16 66
